Location: *
(43.0409°N, 0.1694°E)
Time: 21:28:11
(UTC+00:00)

Meteor 2-20 - Pass Details

Date: 03 October 2023
Orbit: 938 x 959 km, 82.5° (Epoch: 05 December)

Event Time Altitude Azimuth Distance (km) Brightness Sun altitude
Rises 04:29:54 0° 349° (N) 3,651 7.5 -16.9°
Reaches altitude 10° 04:32:25 10° 348° (NNW) 2,700 6.8 -16.5°
Maximum altitude 04:38:33 71° 266° (W) 1,009 4.4 -15.4°
Drops below altitude 10° 04:44:39 10° 183° (S) 2,673 6.7 -14.3°
Sets 04:47:08 0° 181° (S) 3,611 7.4 -13.8°
